Regional Weather Roundup
Issued by NWS

Home | Current Version | Previous Version | Graphics & Text | Print | Product List | Glossary On
Versions: 1 2 3 4 5 6 7 8 9 10 11 12 13 14 15 16 17 18 19 20 21 22 23 24 25 26 27 28 29 30 31 32 33 34 35 36 37 38 39 40 41 42 43 44 45 46 47 48 49 50
000
ASUS45 KCYS 180410
RWRWY

WYOMING REGIONAL WEATHER ROUNDUP
NATIONAL WEATHER SERVICE CHEYENNE WY
1000 PM MDT FRI APR 17 2015

NOTE:  "FAIR" INDICATES FEW OR NO CLOUDS BELOW 12,000 FEET
WITH NO SIGNIFICANT WEATHER AND/OR OBSTRUCTIONS TO VISIBILITY.

WYZ001-180500-
YELLOWSTONE NATIONAL PARK

CITY           SKY/WX    TMP DP  RH WIND       PRES   REMARKS
LK YELLOWSTONE   N/A     29  22  75 CALM      30.15R
W YELLOWSTONE  NOT AVBL

$$
WYZ002>013-054>058-071-098>099-180500-
NORTHERN WYOMING

CITY           SKY/WX    TMP DP  RH WIND       PRES   REMARKS
JACKSON        FAIR      43  21  42 N9        30.08R
CODY           FAIR      45  32  61 S5        30.08S
GREYBULL       FAIR      53  27  36 SE5       30.04R
WORLAND        FAIR      47  34  60 SE7       30.06R
SHERIDAN       FAIR      42  34  73 S5        30.06F
BUFFALO        FAIR      47  37  68 S14       30.11S
GILLETTE       FAIR      46  40  79 S13       30.11R
HULETT         FAIR      48  39  71 SW7       30.12S
NEWCASTLE      RAIN      43  43 100 CALM      30.14S

$$
WYZ014>020-022>026-101>103-180500-
CENTRAL WYOMING

CITY           SKY/WX    TMP DP  RH WIND       PRES   REMARKS
BIG PINEY      FAIR      38  29  70 S6        30.13R WCI  33
PINEDALE       FAIR      41  28  60 SW5       30.13R
DUBOIS         FAIR      34  23  64 CALM      30.15R
LANDER         CLOUDY    44  38  79 SE7       30.12R
RIVERTON       MOCLDY    43  35  73 E9        30.14R
CASPER         LGT RAIN  35  34  96 NW3       30.12F
DOUGLAS        CLOUDY    36  35  96 NW9       30.13F WCI  29

$$
WYZ021-027>030-104>119-180500-
SOUTHERN WYOMING

CITY           SKY/WX    TMP DP  RH WIND       PRES   REMARKS
EVANSTON       MOCLDY    39  31  72 E8        30.13R WCI  33
KEMMERER       FAIR      34  32  93 SW5       30.15R WCI  30
FORT BRIDGER   CLEAR     36  34  93 S8        30.17R WCI  29
ROCK SPRINGS   CLOUDY    34  33  96 NE14      30.11S WCI  25
DIXON          FAIR      34  28  80 NE8       30.06R WCI  27
RAWLINS        MOCLDY    32  32 100 E9        30.09R WCI  24
SARATOGA       FAIR      32  30  93 W3        30.07S
LARAMIE        MOCLDY    24  22  91 CALM      30.07R
CHEYENNE       LGT RAIN  33  32  96 NE8G18    30.09R FOG     WCI  26
TORRINGTON     CLOUDY    41  39  93 W6        30.06S
PINE BLUFFS    RAIN      36  36 100 CALM      30.11R

$$



USA.gov is the U.S. government's official web portal to all federal, state and local government web resources and services.